Jamestown, NY

8:38 AM EST on December 16, 2019 (GMT -0500)
Chautauqua County-Jamestown

Weather History for KJHW - November, 2019

Change the Weather History Date:

Sunday, November 17, 2019

  Actual Average Record
Temperature  
Mean Temperature 30 °F -  
Max Temperature 39 °F 45 °F 68 °F (1990)
Min Temperature 21 °F 25 °F 8 °F (1986)
Degree Days  
Heating Degree Days 35    
Moisture  
Dew Point 17 °F    
Average Humidity 59    
Maximum Humidity 89    
Minimum Humidity 44    
Precipitation  
Precipitation 0.00 in - - ()
Sea Level Pressure  
Sea Level Pressure 30.17 in    
Wind  
Wind Speed 8 mph (SSE)    
Max Wind Speed 13 mph    
Max Gust Speed 20 mph    
Visibility 10 miles    
Events      
Averages and records for this station are not official NWS values.
T = Trace of Precipitation, MM = Missing Value Source: NWS Daily Summary

Daily Weather History Graph

Daily Weather History Graph

Search for Another Location

Airport or City:

Astronomy

Nov. 17, 2019 Rise Set
Actual Time 7:09 AM EST 4:54 PM EST
Civil Twilight 6:39 AM EST 5:24 PM EST
Nautical Twilight 6:05 AM EST 5:58 PM EST
Astronomical Twilight 5:32 AM EST 6:31 PM EST
Moon 9:27 PM EST (11/17) 11:55 AM EST (11/17)
Length of Visible Light 10h 45m
Length of Day
9h 44m
Waning Gibbous, 73% of the Moon is Illuminated
Nov 17
Waning Gibbous
Nov 19
Last Quarter
Nov 26
New
Dec 4
First Quarter
Dec 12
Full

Hourly Weather History & Observations

Time (EST) Temp. Windchill Dew Point Humidity Pressure Visibility Wind Dir Wind Speed Gust Speed Precip Events Conditions
12:56 AM 23.0 °F 14.7 °F 7.0 °F 50% 30.34 in 10.0 mi SE 6.9 mph - N/A   Clear
1:56 AM 24.1 °F 15.2 °F 6.1 °F 46% 30.33 in 10.0 mi SE 8.1 mph - N/A   Clear
2:56 AM 24.1 °F 14.4 °F 5.0 °F 44% 30.33 in 10.0 mi SE 9.2 mph - N/A   Clear
3:56 AM 23.0 °F 15.8 °F 3.9 °F 44% 30.31 in 10.0 mi SE 5.8 mph - N/A   Clear
4:56 AM 23.0 °F 15.8 °F 3.9 °F 44% 30.31 in 10.0 mi SSE 5.8 mph - N/A   Clear
5:56 AM 23.0 °F 14.7 °F 3.9 °F 44% 30.30 in 10.0 mi SSE 6.9 mph - N/A   Clear
6:56 AM 21.9 °F 14.5 °F 6.1 °F 51% 30.28 in 10.0 mi SSE 5.8 mph - N/A   Clear
7:56 AM 25.0 °F 18.1 °F 9.0 °F 51% 30.28 in 10.0 mi SSE 5.8 mph - N/A   Clear
8:56 AM 27.0 °F 18.0 °F 12.0 °F 53% 30.27 in 10.0 mi SSE 9.2 mph - N/A   Clear
9:56 AM 32.0 °F 23.6 °F 17.1 °F 54% 30.25 in 10.0 mi South 10.4 mph - N/A   Clear
10:56 AM 34.0 °F 25.0 °F 18.0 °F 52% 30.21 in 10.0 mi South 12.7 mph 19.6 mph N/A   Clear
11:56 AM 36.0 °F 29.0 °F 19.9 °F 52% 30.17 in 10.0 mi South 9.2 mph - N/A   Clear
12:56 PM 37.0 °F 28.9 °F 21.0 °F 52% 30.14 in 10.0 mi SSE 12.7 mph - N/A   Clear
2:56 PM 39.0 °F 32.3 °F 21.9 °F 50% 30.09 in 10.0 mi SSE 10.4 mph - N/A   Clear
3:56 PM 37.9 °F 30.0 °F 23.0 °F 55% 30.08 in 10.0 mi SSE 12.7 mph - N/A   Clear
4:56 PM 36.0 °F 29.6 °F 23.0 °F 59% 30.08 in 10.0 mi South 8.1 mph - N/A   Clear
5:56 PM 35.1 °F 27.4 °F 25.0 °F 67% 30.08 in 10.0 mi SSE 10.4 mph - N/A   Clear
6:56 PM 34.0 °F 27.2 °F 26.1 °F 73% 30.07 in 10.0 mi SSE 8.1 mph - N/A   Clear
7:56 PM 33.1 °F 26.1 °F 26.1 °F 75% 30.05 in 10.0 mi South 8.1 mph - N/A   Clear
8:56 PM 32.0 °F 25.6 °F 27.0 °F 82% 30.04 in 10.0 mi South 6.9 mph - N/A   Clear
9:56 PM 32.0 °F 24.8 °F 28.0 °F 85% 30.00 in 10.0 mi South 8.1 mph - N/A   Clear
10:56 PM 30.9 °F 23.5 °F 28.0 °F 89% 29.97 in 10.0 mi South 8.1 mph - N/A   Clear
11:56 PM 30.9 °F 22.8 °F 28.0 °F 89% 29.96 in 10.0 mi South 9.2 mph - N/A   Clear